User: anonymous   Login
Location: Unspecified
(0.0000°N, 0.0000°E)
Time: 06:07:05
(UTC+00:00)
Language:

DSCS III B-5 - Orbit

View from above orbital plane
View from above orbital plane
View from above satellite
View from above satellite

Ground track
Ground track

The orbit data is extracted from the following two-line orbital elements,

1 16117U 85092C   18125.98222258 0.00000000  00000-0  00000-0 0    08
2 16117  15.2350  12.0836 0001585 103.2500 256.7798  0.99328974    09
Epoch (UTC): 05 May 2018 23:34:24
Eccentricity: 0.0001585
inclination: 15.2350°
perigee height: 36046 km
apogee height: 36059 km
right ascension of ascending node: 12.0836°
argument of perigee: 103.2500°
revolutions per day: 0.99328974
mean anomaly at epoch: 256.7798°
orbit number at epoch: 0

The dashed part of the orbit path shows where the satellite is in the earth's shadow,  

DLR